Time,TemperatureF,DewpointF,PressureIn,WindDirection,WindDirectionDegrees,WindSpeedMPH,WindSpeedGustMPH,Humidity,HourlyPrecipIn,Conditions,Clouds,dailyrainin,SoftwareType,DateUTC
2013-04-20 00:02:00,45.0,42.0,30.21,NNE,15,0.0,0.0,89,0.00,,,0.00,,2013-04-20 05:02:00,
2013-04-20 00:12:00,45.0,42.0,30.21,NNE,15,0.0,0.0,89,0.00,,,0.00,,2013-04-20 05:12:00,
2013-04-20 00:22:00,45.0,42.0,30.21,NNE,15,0.0,0.0,89,0.00,,,0.00,,2013-04-20 05:22:00,
2013-04-20 00:32:00,45.0,42.0,30.22,NNE,15,0.0,0.0,89,0.00,,,0.00,,2013-04-20 05:32:00,
2013-04-20 00:42:00,45.0,42.0,30.22,NNE,15,0.0,0.0,89,0.00,,,0.00,,2013-04-20 05:42:00,
2013-04-20 00:52:00,44.0,41.0,30.22,NNE,15,0.0,0.0,89,0.00,,,0.00,,2013-04-20 05:52:00,
2013-04-20 01:02:00,44.0,41.0,30.22,NNE,15,0.0,0.0,89,0.00,,,0.00,,2013-04-20 06:02:00,
2013-04-20 01:12:00,44.0,41.0,30.22,NNE,15,0.0,0.0,89,0.00,,,0.00,,2013-04-20 06:12:00,
2013-04-20 01:21:00,44.0,41.0,30.22,NNE,15,0.0,0.0,89,0.00,,,0.00,,2013-04-20 06:21:00,
2013-04-20 01:32:00,44.0,41.0,30.22,NNE,15,0.0,0.0,89,0.00,,,0.00,,2013-04-20 06:32:00,
2013-04-20 01:42:00,44.0,41.0,30.22,NNE,15,0.0,0.0,89,0.00,,,0.00,,2013-04-20 06:42:00,
2013-04-20 01:52:00,43.0,40.0,30.22,NNE,15,0.0,0.0,89,0.00,,,0.00,,2013-04-20 06:52:00,
2013-04-20 02:01:00,42.0,39.0,30.22,NNE,15,0.0,0.0,89,0.00,,,0.00,,2013-04-20 07:01:00,
2013-04-20 02:11:00,42.0,39.0,30.22,NNE,15,0.0,0.0,89,0.00,,,0.00,,2013-04-20 07:11:00,
2013-04-20 02:21:00,42.0,39.0,30.21,NNE,15,0.0,0.0,89,0.00,,,0.00,,2013-04-20 07:21:00,
2013-04-20 02:32:00,42.0,39.0,30.21,NNE,15,0.0,0.0,89,0.00,,,0.00,,2013-04-20 07:32:00,
2013-04-20 02:42:00,42.0,39.0,30.21,NNE,15,0.0,0.0,89,0.00,,,0.00,,2013-04-20 07:42:00,
2013-04-20 02:52:00,42.0,39.0,30.21,NNE,15,0.0,0.0,89,0.00,,,0.00,,2013-04-20 07:52:00,
2013-04-20 03:01:00,42.0,39.0,30.20,NNE,15,0.0,0.0,89,0.00,,,0.00,,2013-04-20 08:01:00,
2013-04-20 03:11:00,42.0,39.0,30.20,NNE,15,0.0,0.0,89,0.00,,,0.00,,2013-04-20 08:11:00,
2013-04-20 03:21:00,41.0,38.0,30.20,NNE,15,0.0,0.0,89,0.00,,,0.00,,2013-04-20 08:21:00,
2013-04-20 03:31:00,41.0,38.0,30.20,NNE,15,0.0,0.0,89,0.00,,,0.00,,2013-04-20 08:31:00,
2013-04-20 03:42:00,41.0,38.0,30.20,NNE,15,0.0,0.0,89,0.00,,,0.00,,2013-04-20 08:42:00,
2013-04-20 03:52:00,41.0,38.0,30.20,NNE,15,0.0,0.0,88,0.00,,,0.00,,2013-04-20 08:52:00,
2013-04-20 04:01:00,41.0,38.0,30.20,NNE,15,0.0,0.0,89,0.00,,,0.00,,2013-04-20 09:01:00,
2013-04-20 04:12:00,41.0,38.0,30.20,NNE,15,0.0,0.0,89,0.00,,,0.00,,2013-04-20 09:12:00,
2013-04-20 04:21:00,41.0,38.0,30.19,NNE,15,0.0,0.0,89,0.00,,,0.00,,2013-04-20 09:21:00,
2013-04-20 04:33:00,41.0,38.0,30.19,NNE,15,0.0,0.0,89,0.00,,,0.00,,2013-04-20 09:33:00,
2013-04-20 04:43:00,41.0,38.0,30.19,NNE,15,0.0,0.0,89,0.00,,,0.00,,2013-04-20 09:43:00,
2013-04-20 04:53:00,41.0,38.0,30.19,NNE,15,0.0,0.0,89,0.00,,,0.00,,2013-04-20 09:53:00,
2013-04-20 05:02:00,40.0,37.0,30.19,NNE,15,0.0,0.0,89,0.00,,,0.00,,2013-04-20 10:02:00,
2013-04-20 05:12:00,40.0,37.0,30.19,NNE,15,0.0,0.0,89,0.00,,,0.00,,2013-04-20 10:12:00,
2013-04-20 05:23:00,40.0,37.0,30.19,NNE,15,0.0,0.0,89,0.00,,,0.00,,2013-04-20 10:23:00,
2013-04-20 05:33:00,40.0,37.0,30.19,NNE,15,0.0,0.0,89,0.00,,,0.00,,2013-04-20 10:33:00,
2013-04-20 05:42:00,40.0,37.0,30.19,NNE,15,0.0,0.0,89,0.00,,,0.00,,2013-04-20 10:42:00,
2013-04-20 05:53:00,39.0,36.0,30.20,NNE,15,0.0,0.0,89,0.00,,,0.00,,2013-04-20 10:53:00,
2013-04-20 06:02:00,39.0,36.0,30.20,NNE,15,0.0,0.0,89,0.00,,,0.00,,2013-04-20 11:02:00,
2013-04-20 06:12:00,39.0,36.0,30.21,NNE,15,0.0,0.0,89,0.00,,,0.00,,2013-04-20 11:12:00,
2013-04-20 06:23:00,39.0,36.0,30.21,NNE,15,0.0,0.0,89,0.00,,,0.00,,2013-04-20 11:23:00,
2013-04-20 06:32:00,39.0,36.0,30.21,NNE,15,0.0,0.0,89,0.00,,,0.00,,2013-04-20 11:32:00,
2013-04-20 06:42:00,39.0,36.0,30.21,NNE,15,0.0,0.0,89,0.00,,,0.00,,2013-04-20 11:42:00,
2013-04-20 06:53:00,39.0,36.0,30.22,NNE,15,0.0,0.0,89,0.00,,,0.00,,2013-04-20 11:53:00,
2013-04-20 07:02:00,39.0,36.0,30.22,NNE,15,0.0,0.0,89,0.00,,,0.00,,2013-04-20 12:02:00,
2013-04-20 07:11:00,39.0,36.0,30.22,NNE,15,0.0,0.0,89,0.00,,,0.00,,2013-04-20 12:11:00,
2013-04-20 07:22:00,39.0,36.0,30.23,North,9,0.0,1.0,89,0.00,,,0.00,,2013-04-20 12:22:00,
2013-04-20 07:32:00,39.0,36.0,30.23,North,9,0.0,0.0,89,0.00,,,0.00,,2013-04-20 12:32:00,
2013-04-20 07:42:00,39.0,36.0,30.23,North,9,0.0,0.0,89,0.00,,,0.00,,2013-04-20 12:42:00,
2013-04-20 07:52:00,40.0,37.0,30.24,North,9,0.0,0.0,88,0.00,,,0.00,,2013-04-20 12:52:00,
2013-04-20 08:02:00,43.0,40.0,30.25,North,9,0.0,0.0,88,0.00,,,0.00,,2013-04-20 13:02:00,
2013-04-20 08:11:00,43.0,40.0,30.25,North,9,0.0,0.0,88,0.00,,,0.00,,2013-04-20 13:11:00,
2013-04-20 08:21:00,46.0,43.0,30.24,North,9,0.0,0.0,89,0.00,,,0.00,,2013-04-20 13:21:00,
2013-04-20 08:32:00,49.0,46.0,30.25,North,349,0.0,1.0,89,0.00,,,0.00,,2013-04-20 13:32:00,
2013-04-20 08:42:00,49.0,46.0,30.25,North,349,0.0,1.0,89,0.00,,,0.00,,2013-04-20 13:42:00,
2013-04-20 08:52:00,52.0,49.0,30.25,North,349,0.0,0.0,89,0.00,,,0.00,,2013-04-20 13:52:00,
2013-04-20 09:02:00,55.0,49.0,30.26,North,355,0.0,4.0,80,0.00,,,0.00,,2013-04-20 14:02:00,
2013-04-20 09:11:00,55.0,49.0,30.26,North,355,0.0,4.0,80,0.00,,,0.00,,2013-04-20 14:11:00,
2013-04-20 09:21:00,56.0,49.0,30.26,NNE,22,1.0,5.0,77,0.00,,,0.00,,2013-04-20 14:21:00,
2013-04-20 09:32:00,58.0,46.0,30.26,ESE,118,3.0,8.0,64,0.00,,,0.00,,2013-04-20 14:32:00,
2013-04-20 09:42:00,58.0,46.0,30.26,ESE,118,3.0,8.0,64,0.00,,,0.00,,2013-04-20 14:42:00,
2013-04-20 09:52:00,60.0,48.0,30.25,SSE,168,1.0,5.0,64,0.00,,,0.00,,2013-04-20 14:52:00,
2013-04-20 10:01:00,62.0,45.0,30.26,SE,126,1.0,5.0,54,0.00,,,0.00,,2013-04-20 15:01:00,
2013-04-20 10:11:00,62.0,45.0,30.26,SE,126,1.0,5.0,54,0.00,,,0.00,,2013-04-20 15:11:00,
2013-04-20 10:21:00,62.0,44.0,30.26,East,94,2.0,7.0,52,0.00,,,0.00,,2013-04-20 15:21:00,
2013-04-20 10:33:00,63.0,44.0,30.27,SE,125,5.0,10.0,49,0.00,,,0.00,,2013-04-20 15:33:00,
2013-04-20 10:43:00,63.0,44.0,30.27,SE,125,5.0,10.0,49,0.00,,,0.00,,2013-04-20 15:43:00,
2013-04-20 10:53:00,63.0,42.0,30.26,ESE,115,5.0,11.0,47,0.00,,,0.00,,2013-04-20 15:53:00,
2013-04-20 11:03:00,64.0,40.0,30.26,ESE,123,6.0,11.0,41,0.00,,,0.00,,2013-04-20 16:03:00,
2013-04-20 11:12:00,64.0,42.0,30.26,East,79,3.0,10.0,45,0.00,,,0.00,,2013-04-20 16:12:00,
2013-04-20 11:23:00,64.0,42.0,30.26,East,79,3.0,10.0,45,0.00,,,0.00,,2013-04-20 16:23:00,
2013-04-20 11:32:00,66.0,43.0,30.25,ESE,119,6.0,13.0,43,0.00,,,0.00,,2013-04-20 16:32:00,
2013-04-20 11:42:00,66.0,43.0,30.25,ESE,119,6.0,13.0,43,0.00,,,0.00,,2013-04-20 16:42:00,
2013-04-20 11:53:00,65.0,43.0,30.25,East,86,6.0,14.0,44,0.00,,,0.00,,2013-04-20 16:53:00,
2013-04-20 12:02:00,66.0,42.0,30.24,SE,124,5.0,11.0,41,0.00,,,0.00,,2013-04-20 17:02:00,
2013-04-20 12:12:00,66.0,42.0,30.24,SE,124,5.0,11.0,41,0.00,,,0.00,,2013-04-20 17:12:00,
2013-04-20 12:23:00,66.0,44.0,30.24,SE,134,3.0,11.0,45,0.00,,,0.00,,2013-04-20 17:23:00,
2013-04-20 12:33:00,68.0,46.0,30.23,ESE,119,3.0,11.0,45,0.00,,,0.00,,2013-04-20 17:33:00,
2013-04-20 12:42:00,68.0,46.0,30.23,ESE,119,3.0,11.0,45,0.00,,,0.00,,2013-04-20 17:42:00,
2013-04-20 12:52:00,68.0,43.0,30.23,East,94,3.0,12.0,41,0.00,,,0.00,,2013-04-20 17:52:00,
2013-04-20 13:02:00,68.0,44.0,30.22,East,85,6.0,15.0,42,0.00,,,0.00,,2013-04-20 18:02:00,
2013-04-20 13:12:00,68.0,45.0,30.21,East,97,5.0,12.0,43,0.00,,,0.00,,2013-04-20 18:12:00,
2013-04-20 13:22:00,68.0,45.0,30.21,East,97,5.0,12.0,43,0.00,,,0.00,,2013-04-20 18:22:00,
2013-04-20 13:32:00,68.0,43.0,30.20,ESE,106,4.0,15.0,40,0.00,,,0.00,,2013-04-20 18:32:00,
2013-04-20 13:42:00,68.0,43.0,30.20,ESE,106,4.0,15.0,40,0.00,,,0.00,,2013-04-20 18:42:00,
2013-04-20 13:52:00,69.0,43.0,30.20,SE,136,7.0,13.0,39,0.00,,,0.00,,2013-04-20 18:52:00,
2013-04-20 14:01:00,69.0,48.0,30.19,SSE,155,3.0,11.0,47,0.00,,,0.00,,2013-04-20 19:01:00,
2013-04-20 14:11:00,70.0,43.0,30.18,East,92,3.0,13.0,37,0.00,,,0.00,,2013-04-20 19:11:00,
2013-04-20 14:21:00,70.0,43.0,30.18,East,92,3.0,13.0,37,0.00,,,0.00,,2013-04-20 19:21:00,
2013-04-20 14:32:00,70.0,42.0,30.17,ESE,116,7.0,11.0,36,0.00,,,0.00,,2013-04-20 19:32:00,
2013-04-20 14:42:00,70.0,45.0,30.17,East,95,7.0,11.0,40,0.00,,,0.00,,2013-04-20 19:42:00,
2013-04-20 14:52:00,70.0,45.0,30.17,East,95,7.0,11.0,40,0.00,,,0.00,,2013-04-20 19:52:00,
2013-04-20 15:02:00,70.0,43.0,30.16,ESE,104,9.0,13.0,38,0.00,,,0.00,,2013-04-20 20:02:00,
2013-04-20 15:12:00,71.0,49.0,30.15,East,92,3.0,9.0,45,0.00,,,0.00,,2013-04-20 20:12:00,
2013-04-20 15:21:00,71.0,49.0,30.15,East,92,3.0,9.0,45,0.00,,,0.00,,2013-04-20 20:21:00,
2013-04-20 15:32:00,71.0,45.0,30.16,SE,140,3.0,9.0,39,0.00,,,0.00,,2013-04-20 20:32:00,
2013-04-20 15:42:00,71.0,45.0,30.16,SE,140,3.0,9.0,39,0.00,,,0.00,,2013-04-20 20:42:00,
2013-04-20 15:52:00,71.0,44.0,30.15,SE,135,5.0,13.0,38,0.00,,,0.00,,2013-04-20 20:52:00,
2013-04-20 16:01:00,71.0,44.0,30.14,ESE,111,7.0,17.0,38,0.00,,,0.00,,2013-04-20 21:01:00,
2013-04-20 16:12:00,71.0,44.0,30.14,ESE,111,7.0,17.0,38,0.00,,,0.00,,2013-04-20 21:12:00,
2013-04-20 16:21:00,71.0,45.0,30.14,East,89,5.0,10.0,39,0.00,,,0.00,,2013-04-20 21:21:00,
2013-04-20 16:33:00,72.0,47.0,30.13,ESE,119,5.0,9.0,41,0.00,,,0.00,,2013-04-20 21:33:00,
2013-04-20 16:43:00,72.0,47.0,30.13,ESE,119,5.0,9.0,41,0.00,,,0.00,,2013-04-20 21:43:00,
2013-04-20 16:53:00,71.0,45.0,30.12,ESE,105,5.0,12.0,40,0.00,,,0.00,,2013-04-20 21:53:00,
2013-04-20 17:02:00,71.0,45.0,30.11,East,82,1.0,11.0,39,0.00,,,0.00,,2013-04-20 22:02:00,
2013-04-20 17:12:00,71.0,45.0,30.11,East,82,1.0,11.0,39,0.00,,,0.00,,2013-04-20 22:12:00,
2013-04-20 17:22:00,71.0,43.0,30.11,SE,126,5.0,10.0,37,0.00,,,0.00,,2013-04-20 22:22:00,
2013-04-20 17:32:00,71.0,45.0,30.10,ESE,113,2.0,10.0,40,0.00,,,0.00,,2013-04-20 22:32:00,
2013-04-20 17:42:00,71.0,45.0,30.10,ESE,113,2.0,10.0,40,0.00,,,0.00,,2013-04-20 22:42:00,
2013-04-20 17:53:00,71.0,45.0,30.10,East,96,7.0,13.0,40,0.00,,,0.00,,2013-04-20 22:53:00,
2013-04-20 18:02:00,71.0,46.0,30.10,East,100,4.0,10.0,41,0.00,,,0.00,,2013-04-20 23:02:00,
2013-04-20 18:11:00,71.0,46.0,30.10,East,100,4.0,10.0,41,0.00,,,0.00,,2013-04-20 23:11:00,
2013-04-20 18:22:00,70.0,44.0,30.10,ESE,111,3.0,11.0,39,0.00,,,0.00,,2013-04-20 23:22:00,
2013-04-20 18:32:00,70.0,46.0,30.09,ESE,103,3.0,11.0,43,0.00,,,0.00,,2013-04-20 23:32:00,
2013-04-20 18:42:00,70.0,46.0,30.09,ESE,103,3.0,11.0,43,0.00,,,0.00,,2013-04-20 23:42:00,
2013-04-20 18:53:00,69.0,44.0,30.09,ESE,111,2.0,8.0,41,0.00,,,0.00,,2013-04-20 23:53:00,
2013-04-20 19:01:00,69.0,46.0,30.09,ESE,110,2.0,7.0,44,0.00,,,0.00,,2013-04-21 00:01:00,
2013-04-20 19:11:00,69.0,46.0,30.09,ESE,110,2.0,7.0,44,0.00,,,0.00,,2013-04-21 00:11:00,
2013-04-20 19:21:00,68.0,46.0,30.09,ESE,110,1.0,5.0,45,0.00,,,0.00,,2013-04-21 00:21:00,
2013-04-20 19:32:00,67.0,47.0,30.10,ESE,110,0.0,3.0,49,0.00,,,0.00,,2013-04-21 00:32:00,
2013-04-20 19:42:00,67.0,47.0,30.10,ESE,110,0.0,3.0,49,0.00,,,0.00,,2013-04-21 00:42:00,
2013-04-20 19:52:00,66.0,48.0,30.11,ESE,110,0.0,0.0,53,0.00,,,0.00,,2013-04-21 00:52:00,
2013-04-20 20:01:00,65.0,52.0,30.11,ESE,110,0.0,0.0,63,0.00,,,0.00,,2013-04-21 01:01:00,
2013-04-20 20:12:00,65.0,52.0,30.11,ESE,110,0.0,0.0,63,0.00,,,0.00,,2013-04-21 01:12:00,
2013-04-20 20:21:00,63.0,54.0,30.12,ESE,110,0.0,0.0,72,0.00,,,0.00,,2013-04-21 01:21:00,
2013-04-20 20:31:00,61.0,54.0,30.12,ESE,110,0.0,0.0,77,0.00,,,0.00,,2013-04-21 01:31:00,
2013-04-20 20:42:00,61.0,54.0,30.12,ESE,110,0.0,0.0,77,0.00,,,0.00,,2013-04-21 01:42:00,
2013-04-20 20:52:00,58.0,51.0,30.13,ESE,110,0.0,3.0,78,0.00,,,0.00,,2013-04-21 01:52:00,
2013-04-20 21:01:00,56.0,51.0,30.14,ESE,110,0.0,0.0,84,0.00,,,0.00,,2013-04-21 02:01:00,
2013-04-20 21:11:00,56.0,51.0,30.14,ESE,110,0.0,0.0,84,0.00,,,0.00,,2013-04-21 02:11:00,
2013-04-20 21:21:00,55.0,51.0,30.14,ESE,110,0.0,0.0,86,0.00,,,0.00,,2013-04-21 02:21:00,
2013-04-20 21:32:00,54.0,50.0,30.15,ESE,110,0.0,0.0,87,0.00,,,0.00,,2013-04-21 02:32:00,
2013-04-20 21:41:00,54.0,50.0,30.15,ESE,110,0.0,0.0,87,0.00,,,0.00,,2013-04-21 02:41:00,
2013-04-20 21:52:00,54.0,51.0,30.15,ESE,110,0.0,0.0,88,0.00,,,0.00,,2013-04-21 02:52:00,
2013-04-20 22:01:00,53.0,50.0,30.16,ESE,110,0.0,0.0,88,0.00,,,0.00,,2013-04-21 03:01:00,
2013-04-20 22:11:00,53.0,50.0,30.16,ESE,110,0.0,0.0,88,0.00,,,0.00,,2013-04-21 03:11:00,
2013-04-20 22:21:00,53.0,50.0,30.16,ESE,110,0.0,0.0,88,0.00,,,0.00,,2013-04-21 03:21:00,
2013-04-20 22:33:00,52.0,49.0,30.17,ESE,110,0.0,0.0,88,0.00,,,0.00,,2013-04-21 03:33:00,
2013-04-20 22:42:00,52.0,49.0,30.17,ESE,110,0.0,0.0,88,0.00,,,0.00,,2013-04-21 03:42:00,
2013-04-20 22:52:00,52.0,49.0,30.17,ESE,110,0.0,0.0,88,0.00,,,0.00,,2013-04-21 03:52:00,
2013-04-20 23:02:00,51.0,48.0,30.17,ESE,110,0.0,0.0,88,0.00,,,0.00,,2013-04-21 04:02:00,
2013-04-20 23:12:00,51.0,48.0,30.17,ESE,110,0.0,0.0,88,0.00,,,0.00,,2013-04-21 04:12:00,
2013-04-20 23:22:00,51.0,48.0,30.17,ESE,110,0.0,0.0,88,0.00,,,0.00,,2013-04-21 04:22:00,
2013-04-20 23:33:00,50.0,47.0,30.16,ESE,110,0.0,0.0,88,0.00,,,0.00,,2013-04-21 04:33:00,
2013-04-20 23:42:00,50.0,47.0,30.16,ESE,110,0.0,0.0,88,0.00,,,0.00,,2013-04-21 04:42:00,
2013-04-20 23:53:00,50.0,47.0,30.16,ESE,110,0.0,0.0,88,0.00,,,0.00,,2013-04-21 04:53:00,